Back to catalog

COSMOS 2601

AliveMilitaryPO
NORAD 67675·PAYLOAD·🇷🇺 Russia

Launched Feb 5, 2026 from Plesetsk Cosmodrome

Loading…

Next Passes (next 24 hours)

TLE

FreshSource: Space-Track

Epoch: Sep 14, 2026, 08:47 UTC

1 67675U 26023B   26257.36630833  .00007883  00000-0  30084-3 0  9992
2 67675  96.6146 308.7130 0016830 172.2289 187.9216 15.26747820 33615

Track COSMOS 2601 in real time with AllMySat

Download on the App Store